EW8359 Weather Reports


time (UTC)temp
C
wind
direction
speed
KPH
gust
KPH
rain 1hr
cm
rain 24hr
cm
rain mn
cm
humidity
%
barometer
mb
20260903100031 15 182 0.0 1.6 0.03 0.30 0.30 90 1014.2
20260903094528 15 182 0.0 4.8 0.03 0.30 0.30 90 1014.5
20260903093029 16 182 1.6 6.4 0.20 0.30 0.30 90 1014.5
20260903091526 16 164 0.0 1.6 0.25 0.28 0.28 90 1014.7
20260903090025 16 164 0.0 1.6 0.25 0.28 0.28 90 1014.7
20260903084524 16 164 1.6 3.2 0.25 0.28 0.28 90 1014.8
20260903083023 16 164 0.0 1.6 0.08 0.10 0.10 90 1015.0
20260903081522 16 164 0.0 0.0 0.00 0.03 0.03 90 1015.0
20260903080021 16 164 0.0 1.6 0.00 0.03 0.03 90 1014.7
20260903074519 16 164 0.0 0.0 0.03 0.03 0.03 90 1014.6
20260903073023 16 164 0.0 1.6 0.03 0.03 0.03 89 1014.8
20260903071518 16 164 0.0 1.6 0.03 0.03 0.03 89 1014.9
20260903070017 16 164 0.0 1.6 0.03 0.03 0.03 89 1015.2
20260903064512 16 164 0.0 1.6 0.00 0.00 0.00 89 1015.2
20260903063008 16 164 0.0 1.6 0.00 0.00 0.00 89 1016.0
20260903061506 16 164 0.0 1.6 0.00 0.00 0.00 89 1016.3
20260903060005 16 164 0.0 3.2 0.00 0.00 0.00 89 1016.7
20260903054510 16 164 0.0 1.6 0.00 0.00 0.00 89 1016.5
20260903053101 16 164 0.0 1.6 0.00 0.00 0.00 89 1016.7
20260903051559 15 164 0.0 0.0 0.00 0.00 0.00 89 1016.8
20260903050057 15 164 0.0 1.6 0.00 0.00 0.00 89 1016.9
20260903044559 15 164 0.0 1.6 0.00 0.00 0.00 89 1016.9
20260903043052 15 164 0.0 1.6 0.00 0.00 0.00 89 1017.1
20260903041607 15 164 0.0 1.6 0.00 0.00 0.00 89 1017.1
20260903040051 15 164 0.0 1.6 0.00 0.00 0.00 89 1017.3
20260903034547 15 164 0.0 1.6 0.00 0.00 0.00 89 1017.8
20260903033046 15 164 0.0 1.6 0.00 0.00 0.00 89 1018.1
20260903031544 15 164 0.0 1.6 0.00 0.00 0.00 89 1017.9
20260903030044 15 164 0.0 1.6 0.00 0.00 0.00 88 1018.1
20260903024545 15 164 0.0 3.2 0.00 0.00 0.00 88 1018.0
20260903023044 15 178 1.6 4.8 0.00 0.00 0.00 87 1018.0
20260903021543 15 178 0.0 4.8 0.00 0.00 0.00 87 1018.2
20260903020049 15 181 0.0 3.2 0.00 0.00 0.00 87 1018.4
20260903014602 15 177 0.0 3.2 0.00 0.00 0.00 87 1018.4
20260903013051 15 177 0.0 4.8 0.00 0.00 0.00 87 1018.4
20260903011605 15 163 0.0 1.6 0.00 0.00 0.00 87 1018.5
20260903010057 16 144 1.6 6.4 0.00 0.00 0.00 87 1018.4
20260903004538 16 164 0.0 4.8 0.00 0.00 0.00 87 1017.9
20260903003036 16 162 1.6 3.2 0.00 0.00 0.00 87 1017.9
20260903001546 16 162 0.0 8.0 0.00 0.00 0.00 87 1017.9
20260903000036 16 159 0.0 3.2 0.00 0.00 0.00 86 1018.4
20260902234541 16 155 0.0 3.2 0.00 0.00 0.00 86 1018.5
20260902233037 16 155 0.0 1.6 0.00 0.00 0.00 85 1018.7
20260902231544 16 154 0.0 1.6 0.00 0.00 0.00 84 1018.8
20260902230040 17 155 0.0 3.2 0.00 0.00 0.00 82 1019.1
20260902224537 17 155 0.0 4.8 0.00 0.00 0.00 80 1019.0
20260902223040 17 169 0.0 1.6 0.00 0.00 0.00 78 1019.3
20260902221533 17 169 0.0 6.4 0.00 0.00 0.00 76 1019.4
20260902220036 18 360 0.0 4.8 0.00 0.00 0.00 75 1019.4
20260902214537 18 266 1.6 4.8 0.00 0.00 0.00 74 1019.3
20260902213031 18 54 0.0 3.2 0.00 0.00 0.00 74 1019.4
20260902211532 18 355 1.6 4.8 0.00 0.00 0.00 74 1019.5
20260902210030 18 46 1.6 6.4 0.00 0.00 0.00 74 1019.3
20260902204529 18 229 0.0 3.2 0.00 0.00 0.00 74 1019.5
20260902203029 18 284 0.0 6.4 0.00 0.00 0.00 74 1019.7
20260902201528 18 185 1.6 8.0 0.00 0.00 0.00 72 1019.8
20260902200028 18 174 0.0 6.4 0.00 0.00 0.00 73 1020.0
20260902194542 18 180 0.0 8.0 0.00 0.00 0.00 73 1020.2
20260902193027 18 12 0.0 6.4 0.00 0.00 0.00 71 1020.4
20260902191526 19 127 1.6 8.0 0.00 0.00 0.00 73 1020.3
20260902190025 19 28 0.0 9.7 0.00 0.00 0.00 73 1020.3
20260902184528 18 39 0.0 4.8 0.00 0.00 0.00 75 1020.3
20260902183021 18 179 1.6 11.3 0.00 0.00 0.00 74 1020.3
20260902181519 18 29 0.0 6.4 0.00 0.00 0.00 75 1020.5
20260902180020 18 90 0.0 4.8 0.00 0.00 0.00 74 1020.5
20260902174518 18 156 0.0 4.8 0.00 0.00 0.00 72 1020.7
20260902173024 18 176 0.0 4.8 0.00 0.00 0.00 71 1020.5
20260902171517 18 173 0.0 4.8 0.00 0.00 0.00 72 1020.5
20260902170019 18 176 0.0 4.8 0.00 0.00 0.00 71 1020.6
20260902164615 18 154 3.2 8.0 0.00 0.00 0.00 73 1020.4
20260902163011 18 161 3.2 8.0 0.00 0.00 0.00 74 1020.7
20260902161511 18 146 1.6 4.8 0.00 0.00 0.00 77 1020.9
20260902160010 18 189 0.0 6.4 0.00 0.00 0.00 80 1021.0
20260902154510 18 295 0.0 3.2 0.00 0.00 0.00 81 1021.1
20260902153010 18 295 1.6 6.4 0.00 0.00 0.00 82 1021.1
20260902151507 18 161 3.2 8.0 0.00 0.00 0.00 82 1021.2
20260902150006 18 128 0.0 4.8 0.00 0.00 0.00 81 1021.2
20260902144504 18 135 0.0 3.2 0.00 0.00 0.00 81 1020.9
20260902143109 17 130 1.6 9.7 0.00 0.00 0.00 85 1020.8
20260902141557 17 150 1.6 4.8 0.00 0.00 0.00 86 1020.9
20260902140055 17 202 0.0 4.8 0.00 0.00 0.00 87 1020.8
20260902134558 17 63 0.0 4.8 0.00 0.00 0.00 87 1020.6
20260902133057 17 125 1.6 6.4 0.00 0.00 0.00 87 1020.7
20260902131601 17 17 0.0 3.2 0.00 0.00 0.00 87 1020.6
20260902130052 16 27 0.0 6.4 0.00 0.00 0.00 87 1020.6
20260902124552 16 63 0.0 3.2 0.00 0.00 0.00 88 1020.8
20260902123051 16 63 0.0 3.2 0.00 0.00 0.00 88 1020.6
20260902121550 16 58 0.0 4.8 0.00 0.00 0.00 89 1020.5
20260902120049 16 42 0.0 4.8 0.00 0.00 0.00 89 1020.7
20260902114550 16 40 3.2 6.4 0.00 0.00 0.00 89 1020.5
20260902113051 16 142 1.6 6.4 0.00 0.00 0.00 89 1020.7
20260902111547 16 41 0.0 6.4 0.00 0.00 0.00 89 1020.5
20260902110044 16 161 0.0 4.8 0.00 0.00 0.00 89 1020.2
20260902104604 16 61 0.0 6.4 0.00 0.00 0.00 90 1019.9
20260902103041 16 49 0.0 3.2 0.00 0.00 0.00 90 1020.0
20260902101540 16 50 0.0 1.6 0.00 0.00 0.00 90 1020.0